[[{"header":{"parameterUnit":"m.s-1","parameterCategory":1,"la1":30.2992,"la2":30.254,"lo1":-89.0895,"lo2":-89.0443,"dy":0.0025,"dx":0.0025,"nx":19,"ny":19,"refTime":"2026-05-23T09:00:00:Z","depth":0,"parameterNumber":2,"parameterNumberName":"U-component_of_WINDS"},"data":[0,0,0,-1.4645,-1.4647,-1.4778,-1.4778,-1.4937,-1.4938,0,0,0,0,0,0,0,0,0,0,0,-1.4598,-1.4599,-1.4644,-1.4647,-1.4778,-1.4779,-1.4937,-1.4938,0,0,0,0,0,0,0,0,0,0,0,-1.4598,-1.4599,-1.46,-1.4648,-1.4778,-1.4779,-1.4936,-1.4841,0,0,0,0,0,0,0,0,0,0,-1.4716,-1.4665,-1.4599,-1.46,-1.4649,-1.4778,-1.4779,-1.4837,-1.4847,-1.4873,0,-1.4893,0,-1.4918,-1.4948,-1.4949,0,0,0,-1.4653,-1.4657,-1.4699,-1.46,-1.465,-1.4777,-1.4721,-1.4843,-1.4855,-1.4887,-1.4895,-1.4901,-1.492,-1.4949,-1.495,-1.5077,-1.5077,0,0,-1.4646,-1.4618,-1.4691,-1.4706,-1.4683,-1.4716,-1.4725,-1.485,-1.4858,-1.4896,-1.4905,-1.4923,-1.495,-1.4951,-1.5077,-1.5077,0,0,0,-1.4621,-1.4613,-1.4652,-1.4699,-1.4723,-1.472,-1.473,-1.4852,-1.4867,-1.4907,-1.4925,-1.4951,-1.4953,-1.5076,-1.5077,-1.5065,0,0,0,-1.4617,-1.4598,-1.4648,-1.4632,-1.4721,-1.4789,-1.4728,-1.4858,-1.4873,-1.4924,-1.4951,-1.4954,-1.5076,-1.5077,-1.5064,-1.5064,0,0,0,-1.4592,-1.4596,-1.4612,-1.4631,-1.4686,-1.4787,-1.481,-1.4862,-1.4884,-1.4949,-1.4955,-1.5076,-1.5077,-1.5064,-1.5064,-1.509,0,0,0,-1.4558,-1.4598,-1.4611,-1.4664,-1.4684,-1.4778,-1.4809,-1.4881,-1.4935,-1.4952,-1.5076,-1.5077,-1.5064,-1.5063,-1.509,-1.5108,-1.5112,0,0,-1.4593,-1.4602,-1.4635,-1.465,-1.4734,-1.4761,-1.4845,-1.4921,-1.4954,-1.5035,-1.5038,-1.5065,-1.5063,-1.509,-1.5148,-1.5151,0,0,0,-1.4637,-1.4661,-1.4689,-1.4739,-1.4798,-1.485,-1.4916,-1.4946,-1.5016,-1.4989,-1.5082,-1.5082,-1.5099,-1.5109,-1.5112,-1.513,-1.508,-1.508,-1.508,-1.4646,-1.4686,-1.4745,-1.4801,-1.4849,-1.4919,-1.4962,-1.5014,-1.5039,-1.5061,-1.5085,-1.5115,-1.5126,-1.5128,-1.5145,-1.5098,-1.5098,-1.5098,-1.5098,-1.4703,-1.4744,-1.4778,-1.4847,-1.489,-1.495,-1.502,-1.5037,-1.51,-1.5099,-1.5116,-1.5112,-1.513,-1.5148,-1.5097,-1.5097,-1.5097,-1.5097,-1.5097,-1.4714,-1.474,-1.4775,-1.4853,-1.4909,-1.4965,-1.5025,-1.5062,-1.5097,-1.5114,-1.5145,-1.5146,-1.5152,-1.5126,-1.5126,-1.5127,-1.5127,-1.5127,-1.5127,-1.4711,-1.4751,-1.4796,-1.4864,-1.4902,-1.4958,-1.503,-1.507,-1.5123,-1.5146,-1.5146,-1.5171,-1.5124,-1.5112,-1.5129,-1.5128,-1.5128,-1.5128,-1.5128,-1.4755,-1.4751,-1.482,-1.4859,-1.4944,-1.4999,-1.5046,-1.5124,-1.5162,-1.5191,-1.5214,-1.5172,-1.5184,-1.5182,-1.5172,-1.5203,-1.5203,-1.5203,-1.5203,-1.4764,-1.4774,-1.4854,-1.4914,-1.4977,-1.5027,-1.5107,-1.5166,-1.5226,-1.5253,-1.5254,-1.5244,-1.524,-1.5254,-1.5251,-1.5242,-1.5291,-1.5291,-1.5291,-1.4794,-1.4812,-1.4871,-1.4929,-1.4999,-1.5059,-1.5137,-1.5206,-1.5274,-1.5295,-1.5275,-1.5272,-1.5256,-1.5249,-1.5269,-1.5262,-1.5248,0,0]},{"header":{"parameterUnit":"m.s-1","parameterCategory":1,"la1":30.2992,"la2":30.254,"lo1":-89.0895,"lo2":-89.0443,"dy":0.0025,"dx":0.0025,"nx":19,"ny":19,"refTime":"2026-05-23T09:00:00:Z","depth":0,"parameterNumber":3,"parameterNumberName":"V-component_of_WINDS"},"data":[0,0,0,2.4231,2.423,2.4204,2.4204,2.4176,2.4176,0,0,0,0,0,0,0,0,0,0,0,2.4243,2.4243,2.4231,2.423,2.4204,2.4204,2.4176,2.4176,0,0,0,0,0,0,0,0,0,0,0,2.4243,2.4243,2.4243,2.423,2.4204,2.4204,2.4176,2.4193,0,0,0,0,0,0,0,0,0,0,2.4218,2.4235,2.4243,2.4243,2.423,2.4204,2.4204,2.4194,2.4192,2.4191,0,2.4192,0,2.4184,2.4174,2.4174,0,0,0,2.4226,2.4236,2.4225,2.4243,2.423,2.4204,2.4215,2.4193,2.4191,2.4188,2.4191,2.419,2.4183,2.4174,2.4174,2.4181,2.4181,0,0,2.4228,2.4241,2.4226,2.4224,2.423,2.4216,2.4214,2.4192,2.4195,2.4191,2.4189,2.4183,2.4174,2.4174,2.4181,2.4181,0,0,0,2.4235,2.4242,2.4231,2.4225,2.422,2.4215,2.4213,2.4196,2.4192,2.4189,2.4182,2.4174,2.4174,2.4181,2.4181,2.4205,0,0,0,2.4235,2.4246,2.4232,2.424,2.4221,2.4208,2.4218,2.4193,2.419,2.4182,2.4174,2.4174,2.418,2.4181,2.4203,2.4213,0,0,0,2.4243,2.4247,2.4245,2.4241,2.423,2.4208,2.4202,2.4192,2.4186,2.4174,2.4174,2.418,2.4181,2.4202,2.4211,2.4218,0,0,0,2.4256,2.4266,2.4246,2.4255,2.423,2.4224,2.4202,2.4197,2.4189,2.4174,2.4181,2.4181,2.4202,2.421,2.4217,2.4225,2.423,0,0,2.4276,2.4269,2.4273,2.4254,2.4255,2.4227,2.423,2.4211,2.4197,2.4187,2.4187,2.4204,2.4211,2.4218,2.4257,2.4261,0,0,0,2.4284,2.4287,2.4285,2.4279,2.4265,2.4253,2.4232,2.4224,2.4215,2.4195,2.4208,2.4212,2.4216,2.4219,2.4222,2.4223,2.4184,2.4184,2.4183,2.4331,2.4314,2.4319,2.4299,2.4294,2.4272,2.4266,2.4251,2.4235,2.4239,2.4235,2.4261,2.4265,2.4268,2.4269,2.4239,2.4239,2.4239,2.424,2.4358,2.4359,2.4338,2.4336,2.4318,2.4315,2.4295,2.4283,2.4277,2.4262,2.4264,2.4248,2.4273,2.4273,2.4241,2.4241,2.4241,2.424,2.424,2.4385,2.4382,2.4375,2.4364,2.4358,2.4338,2.4333,2.4316,2.4301,2.4303,2.4296,2.4296,2.4292,2.4301,2.4301,2.4301,2.4302,2.4302,2.4302,2.4415,2.4406,2.4405,2.4392,2.4386,2.4376,2.4354,2.4347,2.4335,2.4323,2.4323,2.4305,2.428,2.4272,2.4303,2.4303,2.4303,2.4302,2.4302,2.4446,2.4437,2.4435,2.443,2.4412,2.4407,2.4387,2.4374,2.4366,2.4364,2.4347,2.4331,2.4322,2.4319,2.4312,2.4352,2.4352,2.4352,2.4352,2.4468,2.4462,2.4457,2.4449,2.4439,2.4421,2.4418,2.4401,2.4382,2.4376,2.4368,2.4359,2.4357,2.4349,2.4345,2.4339,2.4384,2.4384,2.4384,2.4485,2.4478,2.4479,2.4462,2.4448,2.4435,2.4432,2.4422,2.4398,2.4385,2.437,2.4369,2.4354,2.435,2.4335,2.433,2.4318,0,0]}]]